Regional Weather Roundup
Issued by NWS Wakefield, VA

Home | Current Version | Previous Version | Graphics & Text | Print | Product List | Glossary On
Versions: 1 2 3 4 5 6 7 8 9 10 11 12 13 14 15 16 17 18 19 20 21 22 23 24 25 26 27
000
ASUS41 KAKQ 291315
RWRAKQ

REGIONAL WEATHER ROUNDUP
NATIONAL WEATHER SERVICE WAKEFIELD VA
900 AM EDT SAT APR 29 2017

Note: "fair" indicates few or no clouds below 12,000 feet with no
significant weather and/or obstructions to visibility. * = Denotes
station may not report precipitation (e.g., rain,snow,etc.),
thunder or fog.

VAZ042-051-052>054-056-291400-
NORTHERN VIRGINIA

CITY           SKY/WX    TMP DP  RH WIND       PRES   REMARKS
WASH NATIONAL  CLOUDY    74  68  81 W5        30.11R
DULLES         CLOUDY    72  65  78 SW7       30.11R
FORT BELVOIR   CLOUDY    73  67  80 SW3       30.11R
QUANTICO       CLOUDY    75  69  81 CALM      30.14R
FREDERICKSBRG* CLOUDY    76  70  82 SW9       30.11R
STAFFORD*      CLOUDY    73  69  88 CALM      30.16R
WARRENTON      CLOUDY    73  65  74 CALM      30.12R
CULPEPER*      CLOUDY    73  68  82 CALM      30.14R
MANASSAS*        N/A     71  67  87 S5        30.12R
LEESBURG*      CLOUDY    73  64  73 W9        30.12S
WINCHESTER     LGT RAIN  68  59  73 S9        30.13R
FRONT ROYAL*   CLOUDY    68  66  94 W6        30.13S
LURAY*         CLOUDY    72  64  78 SW3       30.16R
$$

VAZ048-049-060>072-079>083-291400-
CENTRAL AND SOUTH CENTRAL VIRGINIA

CITY           SKY/WX    TMP DP  RH WIND       PRES   REMARKS
RICHMOND       CLOUDY    76  72  87 SW14      30.14R
CHESTERFIELD*  CLOUDY   N/A N/A N/A SW8       30.15S
PETERSBURG*    CLOUDY    75  70  85 SW6       30.16S
HANOVER        CLOUDY    76  70  82 SW9       30.15R HAZE
TAPPAHANNOCK*  CLOUDY    77  75  92 S10G16    30.12S
QUINTON*       CLOUDY    76  74  96 SW7       30.14R
CHARLOTTSVILLE CLOUDY    73  67  81 S7        30.13R
GORDONSVILLE*  MOSUNNY   73  68  86 SW9       30.13R
ORANGE*        CLOUDY    72  66  83 SW9       30.13R
LOUISA*        CLOUDY    77  72  83 SW8       30.13R
BUMPASS*       FAIR      74  72  93 SW7       30.13R
FARMVILLE*     CLOUDY    76  74  93 S7        30.15R
CREWE*         CLOUDY    75  75 100 SW7       30.17R
FORT PICKETT*  NOT AVBL
CHASE CITY*    CLOUDY    74  73  95 SW3       30.18R
CLARKSVILLE*   CLOUDY    73  73 100 SW10      30.18R
SOUTH HILL*    CLOUDY    74  71  91 SW12G17   30.24R
LAWRENCEVILLE* CLOUDY    75  70  86 SW8       30.18R
EMPORIA*       CLOUDY    73  70  88 S7        30.19R
$$

VAZ088>098-291400-
SOUTHEAST VIRGINIA

CITY           SKY/WX    TMP DP  RH WIND       PRES   REMARKS
NORFOLK        MOSUNNY   79  71  76 SW23G29   30.15S
VIRGINIA BEACH PTSUNNY   77  70  79 SW17G25   30.15S
NORFOLK NAVAL  PTSUNNY   78  71  79 SW12G22   30.17S
WEST POINT*    CLOUDY    77  72  85 SW10      30.15R
SALUDA*        PTSUNNY   77  74  90 SW13      30.12R
NEWPORT NEWS   CLOUDY    76  71  85 SW15      30.15S
LANGLEY AFB    CLOUDY    77  72  83 SW18G28   30.15R
FORT EUSTIS    CLOUDY    76  71  83 SW7       30.14R
WILLIAMSBURG*  CLOUDY    77  72  83 SW7G16    30.16S
HR EXEC AP*    PTSUNNY   77  70  78 SW10G20   30.15S
FRANKLIN*      CLOUDY    76  70  82 SW9G16    30.19R
US460-WAKEFLD  CLOUDY    75  71  87 SW8G20    30.17R
$$

VAZ020-022-025-037-045-291400-
WEST CENTRAL AND SOUTHWEST VIRGINIA

CITY           SKY/WX    TMP DP  RH WIND       PRES   REMARKS
STAUNTON*      CLOUDY    70  64  81 CALM      30.19R
WAYNESBORO*    PTSUNNY   72  66  81 W3        30.18R
HOT SPRINGS VA CLOUDY    68  52  56 W13       30.29R
LYNCHBURG      CLOUDY    72  67  84 VRB3      30.19R
DANVILLE       CLOUDY    74  72  93 SW3       30.19R
SOUTH BOSTON*  CLOUDY    75  73  96 SW7       30.18R
MARTINSVILLE   CLOUDY    71  67  87 CALM      30.22S
ROANOKE        CLOUDY    72  65  78 CALM      30.20R
BLACKSBURG     CLOUDY    69  63  80 CALM      30.25S
DUBLIN*        CLOUDY    68  61  77 CALM      30.24S
MARION*        CLOUDY    67  63  87 CALM      30.26F
HILLSVILLE*    CLOUDY    69  65  88 CALM      30.24S
RICHLANDS*     FAIR      69  62  79 SE3       30.22S
WISE*          MOSUNNY   70  59  68 SE6       30.20F
ABINGDON*      CLOUDY    70  64  80 E6        30.20R
$$

MDZ021>025-VAZ099-100-291400-
SOUTHERN MARYLAND AND THE DELMARVA PENINSULA

CITY           SKY/WX    TMP DP  RH WIND       PRES   REMARKS
PATUXENT RIVER CLOUDY    77  74  90 SW16      30.09R
BAY BRIDGE APT CLOUDY    75  68  78 SW6       30.10R
LEONARDTOWN    CLOUDY    75  70  83 W12G18    30.13R
DOVER          CLOUDY    76  76 100 W14       30.07R
GEORGETOWN     CLOUDY    79  71  76 W10G21    30.09R
EASTON         MOSUNNY   77  68  73 W10       30.14R
CAMBRIDGE      SUNNY     77  72  83 SW12      30.10R
SALISBURY      CLOUDY    78  73  84 SW15G25   30.09R
OCEAN CITY     MOSUNNY   78  72  81 W15       30.08R
WALLOPS ISLAND CLOUDY    78  73  84 SW14G28   30.10R
ACCOMACK*      CLOUDY    77  72  84 SW17      30.12S
$$

NCZ012>017-030>032-291400-
NORTH CENTRAL AND EASTERN NORTH CAROLINA

CITY           SKY/WX    TMP DP  RH WIND       PRES   REMARKS
ROANOKE RAPIDS PTSUNNY   75  72  88 SW15      30.19S
RALEIGH        PTSUNNY   76  70  82 SW13      30.20S
ELIZABETH CITY PTSUNNY   77  73  87 SW13      30.20R
AHOSKIE*         N/A     77  71  84 S3        30.19S
EDENTON*       CLOUDY    78  72  81 SW9       30.22S
CURRITUCK*     PTSUNNY   78  71  81 SW17      30.19F
KILL DEVIL HLS CLOUDY    76  70  81 W7        30.21R
MANTEO         CLOUDY    76  70  82 W13G23    30.22R
CAPE HATTERAS  SUNNY     75  71  87 SW12      30.23R FOG
TARBORO*       NOT AVBL
GOLDSBORO      MOSUNNY   77  75  94 SW10      30.20S
WASHINGTON     MOSUNNY   76  70  83 SW10      30.22S
GREENVILLE     MOSUNNY   77  72  83 SW8G17    30.21F
NEW BERN       MOSUNNY   78  72  81 SW10      30.24S
WILMINGTON     MOSUNNY   79  72  79 S13       30.23F
$$

VAZ048-291400-
ELSEWHERE

CITY           SKY/WX    TMP DP  RH WIND       PRES   REMARKS
HARRISBURG PA  RAIN      69  64  84 W12G18    30.07R
BALTIMORE      CLOUDY    73  68  84 W10       30.10R
ANNAPOLIS      CLOUDY    76  70  82 VRB7      30.09R
ANDREWS AFB    CLOUDY    73  67  82 SW10      30.10R
PHILADELPHIA   CLOUDY    73  67  81 SW10      30.06R
HENDERSON NC   MOSUNNY   72  67  84 SW12G21   30.19S
GREENSBORO     CLOUDY    73  71  93 SW9       30.19R
ROCKY MOUNT    CLOUDY    77  73  87 SW10      30.21R
$$

VAZ100-291400-
MARINE

STATION/POSITION TIME  TEMP    WIND        PRES    WAVE   SWELL
                       AIR SEA DIR/SP/G            HT/PER HT/PER
                 (UTC) (F)     (DEG/KT/KT) (MB)    (FT/S) (FT/S)
CAPE MAY NJ      1248   67 60  310/  9/ 11 1018.2R
LEWES DE         1248   78 57  270/ 14/ 22 1017.8R
15NM E FENWICK I 1150   60 55  200/ 17/ 21 1017.0    4/ 6   2/ 8
OCEAN-CITY-INLET 1248   75 62  260/ 16/ 19 1018.7R
WACHAPREAGUE VA  1248   77 71  190/ 13/ 18 1019.3F
THOMAS POINT MD  1300   73 60  260/ 14/ 15   N/A
GOOSES REEF MD   1300   70 56  290/ 10/ 14 1019.9    2/ 2
COVE POINT MD    1248   75     270/ 16/ 25 1019.4R
SOLOMONS ISLAND  1248   74 61  250/ 17/ 21   N/A
BISHOPS HEAD MD  1248   72 69  220/ 12/ 16 1019.4R
PINEY POINT MD   1242          290/  8/  9   N/A
POTOMAC MD       1300   71 63  280/  8/ 10 1018.3    2/ 3
CAMBRIDGE MD     1248   77 66                N/A
LEWISETTA VA     1248   76 69  240/ 16/ 20 1018.7R
RAPPAHANNOCK LGT 1242          180/ 13/ 14 1021.0R
STINGRAY PT      1250   72     250/ 14/ 16 1020.1R
YORK RVR RNG VA  1248   75     250/ 19/ 22 1019.8R
YORKTOWN VA      1248   76 67  230/ 11/ 15 1020.4R
JAMESTOWN VA     1300   75 70  230/ 10/ 12   N/A     0
DOMINION TERM VA 1248   74     230/ 10/ 13 1021.5R
KIPTOPEKE VA     1242      64  220/  6/  8   N/A
CHES BAY BRIDGE  1248   74 65  250/ 21/ 24 1020.6F
CAPE HENRY VA    1248   77     220/ 14/ 21   N/A
WILLOUBY STN VA  1248   74     230/ 19/ 21 1021.9S
S CRANEY ISL VA  1248   76     230/ 10/ 15 1021.2R
CAPE HENRY BUOY  1242      63                N/A     3/ 7
1ST LANDING BUOY 1300   73 63              1020.9    2/ 3
CAPE CHARLES BUO 1251      59                N/A     3/ 7
64NM E OF VA BCH 1250   61 57  220/ 10/ 10 1022.9S   3/ 8   3/ 8
DUCK PIER NC     1248   75 57  230/ 16/ 21 1022.5R
44100 DUCK FRF   1235      60                N/A     3/ 8
44056 DUCK FRF   1230      58                N/A     2/ 8
OREGON INLET NC  1242   74 75  220/ 17/ 19 1022.8R
HATTERAS NC      1248   75 71  210/ 11/ 15 1023.3R
DIAMOND SHLS NC  1250   77 76  230/ 12/ 14 1023.6F   4/ 5   2/ 7
CAPE LOOKOUT NC  1200   74     250/  8/ 10 1024.0R
$$




USA.gov is the U.S. government's official web portal to all federal, state and local government web resources and services.